Regional Weather Roundup
Issued by NWS

Home | Current Version | Previous Version | Text Only | Print | Product List | Glossary Off
Versions: 1 2 3 4 5 6 7 8 9 10 11 12 13 14 15 16 17 18 19 20 21 22 23 24 25 26 27 28 29 30 31 32 33 34 35 36 37 38 39 40 41 42 43 44 45 46 47 48 49 50

505
ASUS43 KMPX 290401
RWRMN
WEATHER ROUNDUP FOR MINNESOTA
NATIONAL WEATHER SERVICE TWIN CITIES/CHANHASSEN MN
1100 PM CDT FRI JUL 28 2017


NOTE: "FAIR" INDICATES FEW OR NO CLOUDS BELOW 12,000 FEET WITH NO
SIGNIFICANT WEATHER AND/OR OBSTRUCTIONS TO VISIBILITY. N/A MEANS
CURRENT SKY AND/OR WEATHER CONDITIONS ARE NOT AVAILABLE.

MNZ060>063-068>070-290500-
   Twin Cities Metro

CITY           SKY/WX    TMP DP  RH WIND       PRES   REMARKS
TWIN CITIES    CLEAR     74  57  55 SE3       30.08S
ST PAUL        CLEAR     70  62  76 CALM      30.08S
CRYSTAL        CLEAR     68  55  63 CALM      30.07R
BLAINE         CLEAR     70  59  68 CALM      30.08S
LAKEVILLE      CLEAR     61  61 100 CALM      30.09R
EDEN PRAIRIE   CLEAR     72  57  59 SE6       30.07S
SOUTH ST PAUL  CLEAR     69  61  74 CALM      30.08R
LAKE ELMO      FAIR      64  61  88 CALM      30.10R
$$
MNZ001>005-007-008-013>017-022>024-027-028-290500-
   Northwest Minnesota

CITY           SKY/WX    TMP DP  RH WIND       PRES   REMARKS
BEMIDJI        CLEAR     71  61  69 S8        30.07R
HALLOCK        CLEAR     64  61  88 SE8       30.00S
ROSEAU         CLEAR     68  63  83 S3        30.03S
WARROAD        CLEAR     66  63  88 CALM      30.04R
CROOKSTON      CLEAR     66  63  88 S6        30.03S
FOSSTON        CLEAR     63  59  88 S3        30.06S
DETROIT LAKES  CLEAR     72  63  73 SE3       30.08S
MOORHEAD       CLEAR     72  63  73 SE3       30.04S
PARK RAPIDS    CLEAR     71  62  73 S5        30.08S
MAHNOMEN       FAIR      68  61  78 S5        30.05S
$$
MNZ006-009>011-018-025>026-290500-
   North Central Minnesota

CITY           SKY/WX    TMP DP  RH WIND       PRES   REMARKS
BAUDETTE       PTCLDY    67  59  75 SE3       30.04R
FLAG ISLAND    CLEAR     73  66  78 CALM      30.02R
INTL FALLS     CLEAR     61  59  93 CALM      30.05S
WASKISH        CLEAR     64  63  94 CALM      30.06S
BIG FORK       CLEAR     63  61  94 CALM      30.08S
LONGVILLE      CLEAR     61  61 100 CALM      30.09S
GRAND RAPIDS   CLEAR     64  62  93 S3        30.11R
CRANE LAKE     CLEAR     57  57 100 CALM      30.08S
ORR            CLEAR     64  57  77 CALM      30.05F
COOK             N/A     63  61  94 CALM      30.09S
WALKER         FAIR      68  60  74 CALM      30.08R
$$
MNZ012-019>021-037-290500-
   Northeast Minnesota

CITY           SKY/WX    TMP DP  RH WIND       PRES   REMARKS
DULUTH         CLEAR     63  57  81 SE5       30.10S
ELY            CLEAR     63  55  77 CALM      30.10R
HIBBING        CLEAR     59  58  96 CALM      30.09S
EVELETH        CLEAR     60  56  86 CALM      30.11S
DULUTH HARBOR  CLEAR     68  64  88 NE6       30.09S
TWO HARBORS    CLEAR     63  57  82 CALM      30.08S
SILVER BAY     CLEAR     59  57  94 CALM      30.09S
GRAND MARAIS     N/A     59  55  87 N3        30.09S
G MARAIS ARPRT CLEAR     55  52  88 CALM      30.14S
$$
MNZ029>031-032-039>041-046>048-054>057-064-290500-
   West Central Minnesota

CITY           SKY/WX    TMP DP  RH WIND       PRES   REMARKS
FERGUS FALLS   CLEAR     73  64  73 SE7       30.05R
WHEATON        CLEAR     66  61  82 SE6       30.07R
MORRIS         CLEAR     70  63  78 S6        30.06S
ALEXANDRIA     CLEAR     68  63  84 CALM      30.10S
ELBOW LAKE     FAIR      68  63  83 CALM      30.07S
WADENA         CLEAR     64  61  88 CALM      30.08S
GLENWOOD       CLEAR     64  63  94 E3        30.09S
APPLETON       CLEAR     72  61  68 SE3       30.06S
BENSON         CLEAR     68  61  77 CALM      30.08S
ORTONVILLE     CLEAR     70  63  78 MISG        N/A
MADISON        CLEAR     70  63  78 SE3       30.07R
WILLMAR        FAIR      70  64  83 CALM      30.09S
$$
MNZ033>034-036-042>043-049>051-058-059-290500-
   Central Minnesota

CITY           SKY/WX    TMP DP  RH WIND       PRES   REMARKS
ST CLOUD       CLEAR     64  62  93 E3        30.08S
SAUK CENTRE    FAIR      67  60  77 CALM      30.09S
PAYNESVILLE    CLEAR     65  61  88 CALM      30.09S
AITKIN         MOCLDY    59  57  94 CALM      30.08S
PINE RIVER     CLEAR     63  61  94 CALM      30.12S
BRAINERD       CLEAR     64  61  90 CALM      30.09S
STAPLES        CLEAR     66  59  77 CALM      30.09S
LONG PRAIRIE   FAIR      64  61  88 CALM      30.10R
LITTLE FALLS   CLEAR     63  59  88 CALM      30.09S
LITCHFIELD     CLEAR     72  63  73 CALM      30.09R
BUFFALO        CLEAR     67  59  74 CALM      30.09S
MAPLE LAKE     CLEAR     67  62  85 CALM      30.09S
HUTCHINSON     CLEAR     69  65  88 CALM      30.09S
$$
MNZ037-044-045-052-053-290500-
   East Central Minnesota

CITY           SKY/WX    TMP DP  RH WIND       PRES   REMARKS
PRINCETON      CLEAR     64  61  88 CALM      30.09S
MORA           CLEAR     63  61  94 CALM      30.10S
CAMBRIDGE      CLEAR     66  57  72 CALM      30.07S
RUSH CITY      CLEAR     62  60  93 CALM      30.09S
MOOSE LAKE     CLEAR     63  61  94 CALM      30.08S
HINCKLEY       FAIR      61  61 100 CALM      30.09S
CLOQUET        CLEAR     63  57  82 CALM      30.11S
MCGREGOR       CLEAR     63  59  88 CALM      30.10R
$$
MNZ071>073-080-081-089-090-097-098-290500-
   Southwest Minnesota

CITY           SKY/WX    TMP DP  RH WIND       PRES   REMARKS
MONTEVIDEO     CLEAR     68  61  77 S3        30.07S
GRANITE FALLS  CLEAR     69  64  82 CALM      30.08S
CANBY          CLEAR     68  63  82 CALM      30.08R
MARSHALL       CLEAR     68  62  81 CALM      30.08R
REDWOOD FALLS  CLEAR     68  61  78 CALM      30.07R
OLIVIA         CLEAR     70  61  73 SE3       30.07S
PIPESTONE      CLEAR     70  63  78 CALM      30.10R
WINDOM         CLEAR     64  61  88 CALM      30.09S
WORTHINGTON    CLEAR     66  62  87 E3        30.10R FOG
JACKSON        CLEAR     64  61  88 CALM      30.10S
TRACY          CLEAR     70  63  77 S3        30.09R
SLAYTON        HVY RAIN  67  57  71 E5        30.10S
$$
MNZ065>067-074>077-082>085-091>093-290500-
   South Central Minnesota

CITY           SKY/WX    TMP DP  RH WIND       PRES   REMARKS
MANKATO        CLEAR     69  61  75 E8        30.09R
NEW ULM        CLEAR     66  61  82 E5        30.08R
ST JAMES       CLEAR     68  61  77 E7        30.09S
FAIRMONT       CLEAR     66  63  90 E5        30.09R
GLENCOE        PTCLDY    70  65  84 E3        30.08S
FARIBAULT      CLEAR     63  61  94 CALM      30.10R
OWATONNA       CLEAR     63  59  88 E3        30.10R
WASECA         CLEAR     63  57  82 E5        30.10S
ALBERT LEA     CLEAR     68  61  77 CALM      30.10R
$$
MNZ078>079-086>088-094>096-290500-
   Southeast Minnesota

CITY           SKY/WX    TMP DP  RH WIND       PRES   REMARKS
ROCHESTER      CLEAR     67  56  67 E5        30.10S
RED WING       CLEAR     63  57  82 CALM      30.08R
STANTON        PTCLDY    63  60  90 CALM      30.08R
DODGE CENTER   CLEAR     63  55  77 E3        30.10S
WINONA         CLEAR     63  59  88 CALM      30.08S
AUSTIN         CLEAR     63  57  82 CALM      30.09S
PRESTON        CLEAR     64  55  72 CALM      30.10S
$$
ABBREVIATIONS USED IN REMARKS
   TC - TEMPERATURES IN CELSIUS
  WCI - WIND CHILL INDEX
   HX - HEAT INDEX
  VSB - VISIBILITY
$$




USA.gov is the U.S. government's official web portal to all federal, state and local government web resources and services.